Location: Unspecified
(48.7670°N, 0.0000°E)
Time: 07:25:35
(UTC+00:00)

Altair - Pass Details

Date: 02 October 2020
Orbit: 1502 x 1682 km, 47.2° (Epoch: 20 October)

Event Time Altitude Azimuth Distance (km) Brightness Sun altitude
Rises 18:50:45 0° 290° (WNW) 4,934 12.0 -13.1°
Reaches altitude 10° 18:54:19 10° 282° (WNW) 3,948 11.1 -13.7°
Maximum altitude 19:02:56 33° 224° (SW) 2,541 8.9 -15.1°
Drops below altitude 10° 19:11:28 10° 165° (SSE) 3,892 9.3 -16.5°
Sets 19:14:58 0° 156° (SSE) 4,856 9.8 -17.0°
